AirNav   Bose ProFlight Aviation Headset
 
 473 users online  

PAOC Portage Creek Airport
Portage Creek, Alaska, USA

GOING TO PORTAGE CREEK?


FAA INFORMATION EFFECTIVE 16 AUGUST 2018

Location

FAA Identifier: A14
Lat/Long: 58-54-23.4900N / 157-42-40.2000W
58-54.391500N / 157-42.670000W
58.9065250 / -157.7111667
(estimated)
Elevation: 129 ft. / 39.3 m (surveyed)
Variation: 21E (2010)
Time zone: UTC -8 (UTC -9 during Standard Time)
Zip code: 99576

Airport Operations

Airport use: Open to the public
Activation date: 08/1975
Control tower: no
ARTCC: ANCHORAGE CENTER
FSS: DILLINGHAM FLIGHT SERVICE STATION [907-842-5275]
Alternate FSS: ENA KENAI FLIGHT SERVICE STATION [1-866-864-1737]
NOTAMs facility: DLG (NOTAM-D service available)
Attendance: UNATNDD
Wind indicator: yes
Segmented circle: yes
VEGETATION OVERGROWING SEG CIRCLE.

Airport Communications

CTAF: 122.9
  • COMMUNICATIONS PRVDD BY DILLINGHAM RADIO ON FREQ 122.55 0745-2345 (KEMUK MOUNTAIN RCO) OTHER TIMES CTC KENAI AFSS.

Nearby radio navigation aids

VOR radial/distance  VOR name  Freq  Var
DLGr086/26.6DILLINGHAM VOR/DME116.4015E
AKNr274/31.7KING SALMON VORTAC112.8016E

 
NDB name  Hdg/Dist  Freq  Var  ID
WOOD RIVER087/26.542915EBTS -... - ...
CHINOOK273/30.735516EAUB .- ..- -...

Airport Services

Airframe service: NONE
Powerplant service: NONE
Bottled oxygen: NONE
Bulk oxygen: NONE

Runway Information

Runway 10/28

Dimensions: 1920 x 60 ft. / 585 x 18 m
Surface: gravel/dirt, in fair condition
VERY SOFT WITH DEEP LOOSE GRAVEL. FIRST 200 FT OF RY 28 CLSD WITH BRUSH GROWING ON EDGES.
Runway edge markings: RY MKD WITH REFLECTIVE ORANGE CONES.
Operational restrictions: SLOPES UP TO E END 1.5 %. NO LINE OF SIGHT BETWEEN RY ENDS.
RUNWAY 10  RUNWAY 28
Latitude: 58-54.481333N58-54.361167N
Longitude: 157-42.789833W157-42.226500W
Elevation: 99.7 ft.128.5 ft.
Traffic pattern: leftleft
Runway heading: 091 magnetic, 112 true271 magnetic, 292 true
Touchdown point: yes, no lightsyes, no lights
Obstructions: 4 ft. brush10 ft. brush, 120 ft. both sides of centerline

Runway 1/19

Dimensions: 1470 x 60 ft. / 448 x 18 m
Surface: gravel/dirt, in good condition
RY 01/19 SFC RUTS 4 IN X 6 IN DEEP 300 FT FM THLD RY 01 WHERE ACFT TURN AROUND FOR TKOF.
Runway edge markings: RY 01/19 MKD WITH REFLECTIVE ORANGE CONES.
RUNWAY 1  RUNWAY 19
Latitude: 58-54.245500N58-54.459333N
Longitude: 157-42.989500W157-42.772833W
Elevation: 79.8 ft.100.7 ft.
Traffic pattern: leftleft
Runway heading: 006 magnetic, 027 true186 magnetic, 207 true
Touchdown point: yes, no lightsyes, no lights
Obstructions: 25 ft. trees, 12 ft. from runway, 120 ft. both sides of centerline6 ft. brush, 5 ft. from runway, 85 ft. right of centerline

Airport Ownership and Management from official FAA records

Ownership: Publicly-owned
Owner: ALASKA DOT&PF CENTRAL REGION
PO BOX 196900
ANCHORAGE, AK 99519-6900
Phone 907-269-0760
Manager: NORMAN HAYANO
BOX 250
DILLINGHAM, AK 99576
Phone 907-842-5511

Airport Operational Statistics

Aircraft operations: avg 58/month *
100% air taxi
* for 12-month period ending 31 December 2017

Additional Remarks

RY COND NOT MNTRD; RCMD VISUAL INSPECTION PRIOR TO USE.
RY 10 & RY 01 - SAFETY AREAS SOFT; MAY BE UNUSBL. RY 28 SAFETY AREA ERODING NEAR BLUFF.
NO WINTER MAINT RY 10/28 FROM 1 OCT THRU MAY 1.
RY VERY SOFT; DEEP RUTS MAY DEVELOP WHEN SFC WET.
WX CAMERA AVBL ON INTERNET AT HTTP://AVCAMS.FAA.GOV
BRUSH AND TREES ENCROACHING ON ALL RY SFCS.

Instrument Procedures

There are no published instrument procedures at PAOC.

Some nearby airports with instrument procedures:

PFWS - South Naknek Nr 2 Airport (25 nm SE)
PFCL - Clarks Point Airport (26 nm W)
PADL - Dillingham Airport (26 nm W)
PANW - New Stuyahok Airport (34 nm N)
PAKN - King Salmon Airport (36 nm E)
 
Loc | Ops | Rwys | IFR | FBO | Links
Com | Nav | Svcs | Stats | Notes

Crowley
 
Area around PAOC (Portage Creek Airport)
 
Road maps at: MapQuest Bing Google
 
Aerial photo
WARNING: Photo may not be current or correct
Aerial photo of PAOC (Portage Creek Airport)
Photo by LL
Photo taken 03-Jul-2013
looking southwest.

Do you have a better or more recent aerial photo of Portage Creek Airport that you would like to share? If so, please send us your photo.

 
Sectional chart

 
Airport distance calculator
Flying to Portage Creek Airport? Find the distance to fly.

From to PAOC

Sunrise and sunset
Times for 18-Aug-2018
 Local
(UTC-8)
 Zulu
(UTC)
Morning civil twilight06:1114:11
Sunrise06:5914:59
Sunset22:1106:11
Evening civil twilight22:5806:58

Current date and time
Zulu (UTC)  19-Aug-2018 05:50:55
Local (UTC-8)  18-Aug-2018 21:50:55
 
METAR
PFWS 
25nm SE 
190456Z AUTO 09026G32KT 10SM -RA OVC110 14/12 A2996 RMK AO2 PK WND 10033/0446 SLP151 P0002 T01390117
PFCL 
26nm W 
190456Z AUTO 04017KT 10SM -RA OVC100 13/11 A2997 RMK AO2 PK WND 05026/0446 RAB41 SLP141 P0000 T01280111 TSNO
PADL 
26nm W 
190456Z 02018G26KT 10SM -RA SCT120 13/11 A3001 RMK AO2 RAB50 SLP166 T01280106 PNO $
PANW 
35nm N 
190456Z AUTO 09018G28KT 10SM SCT110 12/09 A3006 RMK AO2 PK WND 10036/0415 SLP198 T01220094
PAKN 
36nm E 
190454Z 09022G35KT 7SM -RA FEW055 OVC110 15/11 A2992 RMK AO2 PK WND 08039/0428 SLP131 P0001 T01500111
PAMB 
42nm W 
190456Z AUTO 04021G27KT 10SM -RA BKN060 OVC085 13/10 A2998 RMK AO2 PK WND 04032/0441 RAE03B43 SLP158 P0000 T01280100 $
PAII 
45nm S 
190456Z AUTO 06011G17KT 10SM -RA FEW055 OVC100 13/12 A2989 RMK AO2 SLP125 P0000 T01330117
TAF
PADL 
26nm W 
181740Z 1818/1918 02015G25KT 6SM -RA OVC035 WS020/12040KT TEMPO 1818/1822 3SM -RA OVC020 FM190000 03020G28KT P6SM VCSH OVC050 WS020/10040KT FM191000 03025G35KT 4SM -RA BR SCT015 OVC025 WS020/11035KT
NOTAMs
Click for the latest NOTAMs
NOTAMs are issued by the DoD/FAA and will open in a separate window not controlled by AirNav.

 

 
 

Would you like to see your business listed on this page?

 If your business provides an interesting product or service to pilots, flight crews, aircraft, or users of the Portage Creek Airport, you should consider listing it here.  To start the listing process, click on the button below
 
Add a business
 

Other Pages about Portage Creek Airport

Update a link
 
Copyright © AirNav, LLC. All rights reserved. Privacy Policy  Contact